www.pogodaiklimat.ru

Погода и климат >> Архив погоды >> Индонезия >> Сангкапура


ПОГОДА в Сангкапуре

  • Прогноз погоды в Сангкапуре
  • Монитор погоды в Сангкапуре

АРХИВ ПОГОДЫ в Сангкапуре

Время (UTC), дата Ветер
(напр.,м/с)
 
Видим.   Явления Облачность Т
(С)
Тd
(С)
f
(%)
Тe
(С)
Тes
(С)
Комфортность P
(гПа)
Po
(гПа)
Тmin
(С)
Tmax
(С)
R
(мм)
R24
(мм)
S
(см)
21 11.09 В 4 10 км 4/3 540 м
[Cu med, cong Ac trans Ci fib]
+26.2 +22.6 81 +35 +35 очень
душно
1013.4 1012.9
00 12.09 В 6 10 км 4/3 540 м
[Cu med, cong Ac trans Ci fib]
+27.7 +19.9 63 +34 +35 очень
душно
1015.6 1015.2 +25.0
03 12.09 ЮВ 6 10 км 6/5 540 м
[Cu med, cong Ci sp]
+28.8 +21.0 63 +36 +40 очень
душно
1015.6 1015.1
06 12.09 ЮВ 6 10 км 5/5 540 м
[Cu med, cong Ci fib]
+29.5 +22.3 65 +38 +42 очень
душно
1012.9 1012.5
09 12.09 В 4 10 км 6/3 540 м
[Cu med, cong Ci sp]
+27.9 +21.0 66 +35 +37 очень
душно
1011.7 1011.2
12 12.09 В 3 10 км 4/3 570 м
[Cu med, cong Ci sp]
+26.1 +20.4 71 +32 +32 очень
душно
1013.0 1012.6 +30.1
15 12.09 В 4 10 км 3/1 600 м
[Cu hum Ci fib]
+25.9 +20.9 74 +32 +32 очень
душно
1013.7 1013.3
18 12.09 ЮВ 4 10 км 6/4 570 м
[Cu med, cong Ci fib]
+26.0 +21.6 77 +33 +33 очень
душно
1012.9 1012.4
21 12.09 ЮВ 5 10 км 6/4 570 м
[Cu med, cong Ci fib]
+26.2 +21.3 74 +33 +33 очень
душно
1013.3 1012.8
00 13.09 ЮВ 5 10 км 5/4 570 м
[Cu med, cong Ac trans Ci sp]
+27.0 +20.4 67 +33 +34 очень
душно
1014.6 1014.1 +25.0
03 13.09 ЮВ 3 10 км 4/4 570 м
[Cu med, cong Ci sp]
+29.6 +21.6 62 +38 +47 очень
душно
1014.5 1014.0
06 13.09 ЮВ 4 10 км 4/4 570 м
[Cu med, cong Ci sp]
+28.5 +22.1 68 +37 +45 очень
душно
1012.3 1011.8
09 13.09 В 4 10 км 4/3 570 м
[Cu med, cong Ci fib]
+28.4 +20.5 62 +35 +36 очень
душно
1011.6 1011.2
12 13.09 В 3 10 км 3/1 570 м
[Cu med, cong Ci fib]
+26.4 +20.6 70 +33 +33 очень
душно
1012.9 1012.4 +29.9
15 13.09 В 4 10 км 3/3 570 м
[Cu med, cong Ci fib]
+25.8 +21.2 76 +33 +33 очень
душно
1013.8 1013.3
18 13.09 В 3 10 км 5/5 570 м
[Cu med, cong Ci fib]
+25.8 +21.1 75 +32 +32 очень
душно
1012.3 1011.8
21 13.09 ЮВ 4 10 км 5/5 570 м
[Cu med, cong Ci fib]
+26.1 +21.7 77 +34 +34 очень
душно
1012.5 1012.0
00 14.09 ЮВ 5 10 км 6/5 540 м
[Cu med, cong Ci fib]
+27.1 +22.6 76 +36 +37 очень
душно
1014.3 1013.8 +25.5
03 14.09 ЮВ 6 10 км 5/4 540 м
[Cu med, cong Ci fib]
+29.4 +22.5 66 +38 +43 очень
душно
1014.0 1013.5
06 14.09 ЮВ 5 10 км 4/3 540 м
[Cu med, cong Ci fib]
+29.5 +22.4 66 +39 +46 очень
душно
1011.7 1011.3
09 14.09 В 4 10 км 4/4 540 м
[Cu med, cong Ci fib]
+28.7 +22.3 68 +37 +39 очень
душно
1011.0 1010.5
12 14.09 В 5 10 км 4/4 540 м
[Cu med, cong Ci fib]
+26.7 +21.9 75 +34 +34 очень
душно
1012.2 1011.7 +30.2
15 14.09 В 3 10 км 3/3 570 м
[Cu med, cong Ci fib]
+26.1 +21.7 77 +34 +34 очень
душно
1012.5 1012.0
18 14.09 В 6 10 км 4/4 570 м
[Cu med, cong Ci fib]
+25.9 +21.7 78 +33 +33 очень
душно
1010.8 1010.4
21 14.09 В 4 10 км 4/4 570 м
[Cu med, cong Ci fib]
+26.0 +22.8 83 +35 +35 очень
душно
1011.1 1010.7
00 15.09 В 4 10 км 6/5 540 м
[Cu med, cong Ac trans Ci sp]
+26.6 +21.9 75 +34 +35 очень
душно
1013.1 1012.6 +25.6
03 15.09 ЮВ 3 10 км 5/4 540 м
[Cu med, cong Ac trans Ci sp]
+29.3 +22.2 66 +38 +47 очень
душно
1012.6 1012.2
06 15.09 В 4 10 км 5/4 540 м
[Cu med, cong Ac trans Ci sp]
+29.9 +21.4 60 +38 +44 очень
душно
1010.4 1010.0
09 15.09 В 4 10 км 3/3 540 м
[Cu med, cong Ci fib]
+28.6 +22.4 69 +37 +39 очень
душно
1009.3 1008.8
12 15.09 В 5 10 км 4/4 540 м
[Cu med, cong Ci fib]
+26.7 +22.2 76 +35 +35 очень
душно
1010.6 1010.1 +30.2
15 15.09 В 4 10 км 6/6 540 м
[Cu med, cong Ci sp]
+26.5 +22.3 78 +35 +35 очень
душно
1011.8 1011.3
18 15.09 В 4 10 км 6/6 540 м
[Cu med, cong Ci sp]
+26.3 +21.8 76 +34 +34 очень
душно
1010.6 1010.1
21 15.09 В 5 10 км 4/4 540 м
[Cu med, cong Ci sp]
+25.9 +21.8 78 +33 +33 очень
душно
1010.7 1010.3
00 16.09 В 4 10 км 5/5 540 м
[Cu med, cong Ci fib]
+27.2 +22.4 75 +36 +37 очень
душно
1012.3 1011.8 +25.3
03 16.09 В 6 10 км 5/5 540 м
[Cu med, cong Ci fib]
+29.2 +22.3 66 +38 +41 очень
душно
1012.2 1011.7
06 16.09 В 7 10 км 5/4 540 м
[Cu med, cong Ci fib]
+29.5 +22.9 68 +39 +43 очень
душно
1010.0 1009.5
09 16.09 В 5 10 км 5/4 540 м
[Cu med, cong Ci fib]
+28.3 +22.1 69 +37 +38 очень
душно
1009.0 1008.5
12 16.09 В 5 10 км 4/3 540 м
[Cu med, cong Ci fib]
+26.3 +22.5 80 +35 +35 очень
душно
1010.5 1010.0 +29.8
15 16.09 В 5 10 км 5/5 540 м
[Cu med, cong Ci fib]
+26.6 +22.4 78 +35 +35 очень
душно
1011.5 1011.0
18 16.09 В 4 10 км 6/6 540 м
[Cu med, cong Ci fib]
+26.2 +22.7 81 +35 +35 очень
душно
1010.4 1010.9
21 16.09 В 5 10 км 6/6 540 м
[Cu med, cong Ci fib]
+26.4 +22.2 78 +34 +34 очень
душно
1011.6 1011.1
00 17.09 В 5 10 км 5/5 540 м
[Cu med, cong Ci fib]
+27.2 +22.4 75 +36 +36 очень
душно
1013.5 1013.1 +25.2
03 17.09 В 5 10 км 6/5 570 м
[Cu med, cong Ci sp]
+29.3 +23.2 70 +40 +45 очень
душно
1013.0 1012.6
06 17.09 В 6 10 км 6/5 570 м
[Cu med, cong Ci sp]
+29.7 +23.7 70 +41 +44 опасность
перегрева
1010.8 1010.4
09 17.09 В 4 10 км 6/5 540 м
[Cu med, cong Ci sp]
+28.6 +23.2 73 +39 +40 очень
душно
1010.3 1009.9
12 17.09 В 3 10 км 4/3 540 м
[Cu med, cong Ci fib]
+26.8 +22.6 78 +35 +35 очень
душно
1011.9 1011.5 +30.1
15 17.09 В 4 10 км 4/3 540 м
[Cu med, cong Ci fib]
+26.5 +22.8 80 +35 +35 очень
душно
1013.0 1012.5
18 17.09 В 6 10 км 5/5 540 м
[Cu med, cong Ci fib]
+26.4 +22.5 79 +35 +35 очень
душно
1012.4 1011.9
21 17.09 В 6 10 км 5/4 540 м
[Cu med, cong Ci sp]
+26.4 +23.1 82 +35 +35 очень
душно
1012.6 1012.1
00 18.09 В 7 10 км 5/4 540 м
[Cu med, cong Ci sp]
+27.2 +22.4 75 +36 +36 очень
душно
1013.5 1013.1 +26.0
03 18.09 штиль 0 50 км ?/? +29.2 +23.0 69 +39 +39 очень
душно
1013.3 1012.8
06 18.09 ЮВ 5 10 км 5/4 540 м
[Cu med, cong Ci sp]
+29.9 +23.5 69 +41 +47 опасность
перегрева
1011.5 1011.0
09 18.09 В 5 10 км 3/3 540 м
[Cu med, cong Ci fib]
+28.8 +22.6 69 +38 +39 очень
душно
1010.7 1010.3
12 18.09 В 4 10 км 4/4 540 м
[Cu med, cong Ci fib]
+26.9 +23.3 81 +36 +36 очень
душно
1012.2 1011.7 +30.3
15 18.09 В 5 10 км 3/3 570 м
[Cu med, cong Ci fib]
+26.6 +23.0 81 +36 +36 очень
душно
1013.0 1012.6
18 18.09 В 4 10 км 3/3 570 м
[Cu med, cong Ci fib]
+26.3 +22.9 82 +35 +35 очень
душно
1012.1 1011.6

 

Местоположение метеостанции Сангкапура (Индонезия): широта -5.85 долгота 112.63 высота над уровнем моря 3 м.

В архиве по умолчанию представлена погода в Сангкапуре за последнюю неделю. Архивные данные за месяц целиком и за предыдущие месяцы, начиная с января 2011 года, Вы можете получить, выбрав интересующий диапазон дат из раскрывающегося списка и нажав кнопку "Ввод!".


*Определитесь, кто Вы:
робот инопланетянин человек

Внимание! Время в таблицах - всемирное. Для получения местного времени необходимо прибавить поправку, которая равна 7 ч.

Смотрите также архив погоды в соседних городах и на ближайших метеорологических станциях:

Погода в Сурабая Перак (Индонезия) (153 км)
Погода в Аэропорту Джуанда (Индонезия) (170 км)
Погода в Сурабая Геданган (Индонезия) (194 км)
Погода в Калиянджете (Индонезия) (199 км)
Погода в Семаранге (Индонезия) (275 км)
Погода в Аэропорту Ахмад Яни (Индонезия) (279 км)
Погода в Банюванги (Индонезия) (327 км)
Погода в Банджармасине (Индонезия) (357 км)
Погода в Пангкалан-Буне (Индонезия) (365 км)
Погода в Тегале (Индонезия) (400 км)

Пояснения к столбцам:

Ветер - указаны скорость ветра в м/с - средняя за 10 мин, порывы в срок и между сроками (в фигурных скобках) и направление, откуда дует ветер: С - северный, СВ - северо-восточный, В - восточный, ЮВ - юго-восточный, Ю - южный, ЮЗ - юго-западный, З - западный, СЗ - северо-западный.
Видимость - горизонтальная дальность видимости в метрах или километрах. При видимости от 1 до 10 км при отсутствии осадков обычно наблюдается дымка, при ухудшении видимости до 1 км и менее - туман. В сухую погоду видимость может ухудшаться дымом, пылью или мглою.
Явления - указаны атмосферные явления, наблюдавшиеся в срок или в последний час перед сроком; фигурными скобками обозначены явления, наблюдавшиеся между сроками (за 1-3 часа до срока); квадратными скобками обозначены град или гололедные отложения с указанием их диаметра в мм.
Облачность - указаны через наклонную черту общая и нижняя облачность в баллах и высота нижней границы облаков в метрах; квадратными скобками обозначены формы облаков: Ci - перистые, Cs - перисто-слоистые, Cc - перисто-кучевые, Ac - высококучевые, As - высокослоистые, Sc - слоисто-кучевые, Ns - слоисто-дождевые, Cu - кучевые, Cb - кучево-дождевые. Подробнее классификацию облаков см. в Атласе облаков (PDF).
T - Температура воздуха - температура, измеренная на высоте 2 м над землей.
Td - Температура точки росы - температура, при понижении до которой содержащийся в воздухе водяной пар достигнет насыщения.
f - Относительная влажность воздуха - влажноcть воздуха, измеренная на высоте 2 м над землей.
Te - Эффективная температура - температура, которую ощущает одетый по сезону человек в тени. Характеристика душности погоды. При расчете учитывается влияние влажности воздуха и скорости ветра на теплоощущения человека.
Tes - Эффективная температура на солнце - температура, которую ощущает человек, с поправкой на солнечный нагрев. Характеристика знойности погоды. Зависит от высоты солнца над горизонтом, облачности и скорости ветра. Ночью, в пасмурную погоду, а также при ветре 12 м/с и более поправка равна нулю.
P - Атмосферное давление - приведенное к уровню моря атмосферное давление.
Po - Атмосферное давление - измеренное на уровне метеостанции атмосферное давление.
Tmin - Минимальная температура - минимум температуры воздуха на высоте 2 м над землей.
Tmax - Максимальная температура - максимум температуры воздуха на высоте 2 м над землей.
R - Количество осадков - Количество выпавших осадков за период времени, мм. При наведении курсора мыши на число - период времени, за который выпало указанное количество осадков.
R24 - Количество осадков - Количество выпавших осадков за 24 часа, мм.
S - Снежный покров - Высота снежного покрова, см. При наведении курсора мыши на число - состояние снежного покрова и степень покрытия местности в баллах.